Weather History for Hot Springs, VA

Change the Weather History Date:

Monday, January 21, 2013

  Actual Average Record
Temperature  
Mean Temperature 24 °F -  
Max Temperature 33 °F 30 °F 51 °F (2006)
Min Temperature 12 °F 16 °F 0 °F (2000)
Degree Days  
Heating Degree Days 42    
Moisture  
Dew Point 8 °F    
Average Humidity 50    
Maximum Humidity 67    
Minimum Humidity 34    
Precipitation  
Precipitation 0.00 in - - ()
Sea Level Pressure  
Sea Level Pressure 29.87 in    
Wind  
Wind Speed 18 mph (West)    
Max Wind Speed 30 mph    
Max Gust Speed 46 mph    
Visibility 9 miles    
Events Snow    
Averages and records for this station are not official NWS values.
T = Trace of Precipitation, MM = Missing Value Source: NWS Daily Summary

Daily Weather History Graph

Daily Weather History Graph

Search for Another Location

Airport:

Trip Planner

Search our weather history database for the weather conditions in past years. The results will help you decide how hot, cold, wet, or windy it might be!

Date:

Astronomy

Jan. 21, 2013 Rise Set
Actual Time 7:31 AM EST 5:30 PM EST
Civil Twilight 7:02 AM EST 5:59 PM EST
Nautical Twilight 6:30 AM EST 6:31 PM EST
Astronomical Twilight 5:59 AM EST 7:02 PM EST
Moon 1:09 PM EST (1/21) 2:57 AM EST (1/21)
Length of Visible Light 10h 56m
Length of Day
9h 59m
Waxing Gibbous, 75% of the Moon is Illuminated
Jan 21
Waxing Gibbous
Jan 26
Full
Feb 3
Last Quarter
Feb 10
New
Feb 17
First Quarter

Hourly Weather History & Observations

Time (EST) Temp. Windchill Dew Point Humidity Pressure Visibility Wind Dir Wind Speed Gust Speed Precip Events Conditions
12:15 AM 26.6 °F 14.3 °F 6.8 °F 43% 29.98 in 10.0 mi West 16.1 mph 23.0 mph N/A   Clear
12:35 AM 24.8 °F 12.9 °F 6.8 °F 46% 29.98 in 10.0 mi West 13.8 mph 19.6 mph N/A   Clear
12:55 AM 24.8 °F 12.9 °F 6.8 °F 46% 29.98 in 10.0 mi West 13.8 mph - N/A   Clear
1:15 AM 24.8 °F 13.4 °F 6.8 °F 46% 29.98 in 10.0 mi West 12.7 mph 17.3 mph N/A   Clear
1:35 AM 24.8 °F 12.4 °F 6.8 °F 46% 29.98 in 10.0 mi West 15.0 mph 18.4 mph N/A   Clear
1:55 AM 24.8 °F 12.9 °F 6.8 °F 46% 29.98 in 10.0 mi West 13.8 mph - N/A   Clear
2:15 AM 24.8 °F 11.9 °F 6.8 °F 46% 29.98 in 10.0 mi West 16.1 mph - N/A   Clear
2:35 AM 24.8 °F 12.4 °F 6.8 °F 46% 29.97 in 10.0 mi WNW 15.0 mph 24.2 mph N/A   Clear
2:55 AM 23.0 °F 10.1 °F 8.6 °F 54% 29.97 in 10.0 mi West 15.0 mph - N/A   Clear
3:15 AM 23.0 °F 10.6 °F 8.6 °F 54% 29.96 in 10.0 mi West 13.8 mph - N/A   Clear
3:35 AM 23.0 °F 10.6 °F 8.6 °F 54% 29.96 in 10.0 mi West 13.8 mph - N/A   Clear
3:55 AM 21.2 °F 10.1 °F 8.6 °F 58% 29.96 in 10.0 mi West 10.4 mph 18.4 mph N/A   Clear
4:15 AM 21.2 °F 8.3 °F 8.6 °F 58% 29.95 in 10.0 mi West 13.8 mph - N/A   Clear
4:35 AM 21.2 °F 8.3 °F 8.6 °F 58% 29.95 in 10.0 mi West 13.8 mph - N/A   Clear
4:55 AM 21.2 °F 8.3 °F 8.6 °F 58% 29.95 in 10.0 mi West 13.8 mph - N/A   Clear
5:15 AM 21.2 °F 7.3 °F 8.6 °F 58% 29.94 in 10.0 mi West 16.1 mph 21.9 mph N/A   Clear
5:35 AM 21.2 °F 6.8 °F 8.6 °F 58% 29.94 in 10.0 mi West 17.3 mph 20.7 mph N/A   Clear
5:55 AM 21.2 °F 7.3 °F 8.6 °F 58% 29.94 in 10.0 mi West 16.1 mph - N/A   Clear
6:15 AM 23.0 °F 9.6 °F 8.6 °F 54% 29.94 in 10.0 mi West 16.1 mph - N/A   Clear
6:35 AM 23.0 °F 8.7 °F 8.6 °F 54% 29.93 in 10.0 mi West 18.4 mph 21.9 mph N/A   Clear
6:55 AM 23.0 °F 9.6 °F 8.6 °F 54% 29.93 in 10.0 mi West 16.1 mph 21.9 mph N/A   Clear
7:15 AM 23.0 °F 9.2 °F 8.6 °F 54% 29.93 in 2.5 mi West 17.3 mph - N/A   Haze
7:35 AM 23.0 °F 9.6 °F 8.6 °F 54% 29.93 in 10.0 mi West 16.1 mph - N/A   Clear
7:55 AM 23.0 °F 10.1 °F 8.6 °F 54% 29.93 in 10.0 mi West 15.0 mph - N/A   Clear
8:15 AM 24.8 °F 12.4 °F 10.4 °F 54% 29.92 in 10.0 mi West 15.0 mph 20.7 mph N/A   Clear
8:35 AM 24.8 °F 11.9 °F 10.4 °F 54% 29.92 in 10.0 mi West 16.1 mph - N/A   Clear
8:55 AM 26.6 °F 15.2 °F 10.4 °F 51% 29.93 in 10.0 mi West 13.8 mph - N/A   Clear
9:15 AM 26.6 °F 13.1 °F 10.4 °F 51% 29.94 in 10.0 mi West 19.6 mph 25.3 mph N/A   Clear
9:35 AM 26.6 °F 12.7 °F 10.4 °F 51% 29.93 in 10.0 mi West 20.7 mph 25.3 mph N/A   Clear
9:55 AM 26.6 °F 13.1 °F 10.4 °F 51% 29.93 in 1.2 mi West 19.6 mph 26.5 mph N/A   Haze
10:15 AM 26.6 °F 13.8 °F 10.4 °F 51% 29.94 in 0.8 mi West 17.3 mph - N/A Snow Light Snow
10:35 AM 28.4 °F 15.4 °F 12.2 °F 51% 29.93 in 10.0 mi West 19.6 mph - N/A   Mostly Cloudy
10:55 AM 28.4 °F 15.8 °F 10.4 °F 47% 29.92 in 10.0 mi West 18.4 mph 24.2 mph N/A   Mostly Cloudy
11:15 AM 30.2 °F 18.1 °F 10.4 °F 44% 29.91 in 10.0 mi West 18.4 mph 25.3 mph N/A   Overcast
11:35 AM 30.2 °F 18.1 °F 10.4 °F 44% 29.90 in 10.0 mi West 18.4 mph 26.5 mph N/A   Overcast
11:55 AM 30.2 °F 17.8 °F 10.4 °F 44% 29.89 in 10.0 mi West 19.6 mph 25.3 mph N/A   Overcast
12:15 PM 30.2 °F 18.5 °F 12.2 °F 47% 29.88 in 10.0 mi West 17.3 mph - N/A   Overcast
12:35 PM 32.0 °F 19.8 °F 12.2 °F 44% 29.86 in 10.0 mi WSW 20.7 mph - N/A   Overcast
12:55 PM 32.0 °F 19.8 °F 10.4 °F 41% 29.84 in 10.0 mi West 20.7 mph 28.8 mph N/A   Mostly Cloudy
1:15 PM 33.8 °F 21.6 °F 12.2 °F 41% 29.83 in 10.0 mi WSW 23.0 mph 31.1 mph N/A   Mostly Cloudy
1:35 PM 32.0 °F 18.6 °F 12.2 °F 44% 29.81 in 10.0 mi West 25.3 mph 34.5 mph N/A   Scattered Clouds
1:55 PM 32.0 °F 18.4 °F 12.2 °F 44% 29.81 in 2.5 mi West 26.5 mph 35.7 mph N/A   Haze
2:15 PM 32.0 °F 17.9 °F 12.2 °F 44% 29.79 in 10.0 mi WSW 28.8 mph 34.5 mph N/A   Scattered Clouds
2:35 PM 33.8 °F 20.5 °F 12.2 °F 41% 29.79 in 10.0 mi WSW 27.6 mph 42.6 mph N/A   Clear
2:55 PM 33.8 °F 20.5 °F 12.2 °F 41% 29.79 in 1.5 mi WSW 27.6 mph 39.1 mph N/A   Haze
3:15 PM 33.8 °F 20.5 °F 12.2 °F 41% 29.78 in 10.0 mi WSW 27.6 mph 38.0 mph N/A   Scattered Clouds
3:35 PM 32.0 °F 18.6 °F 12.2 °F 44% 29.77 in 10.0 mi West 25.3 mph 40.3 mph N/A   Clear
3:55 PM 32.0 °F 18.4 °F 10.4 °F 41% 29.76 in 10.0 mi West 26.5 mph 35.7 mph N/A   Clear
4:15 PM 30.2 °F 15.2 °F 8.6 °F 40% 29.77 in 10.0 mi West 29.9 mph 46.0 mph N/A   Clear
4:35 PM 30.2 °F 15.4 °F 8.6 °F 40% 29.77 in 10.0 mi West 28.8 mph 35.7 mph N/A   Clear
4:55 PM 30.2 °F 16.2 °F 8.6 °F 40% 29.78 in 10.0 mi West 25.3 mph 34.5 mph N/A   Clear
5:15 PM 28.4 °F 16.6 °F 6.8 °F 40% 29.77 in 10.0 mi West 16.1 mph 24.2 mph N/A   Clear
5:35 PM 28.4 °F 14.7 °F 5.0 °F 37% 29.78 in 0.5 mi West 21.9 mph 31.1 mph N/A Snow Light Snow
5:55 PM 26.6 °F 12.0 °F 3.2 °F 37% 29.78 in 10.0 mi West 23.0 mph 39.1 mph N/A   Clear
6:15 PM 26.6 °F 12.4 °F 3.2 °F 37% 29.78 in 10.0 mi West 21.9 mph 31.1 mph N/A   Clear
6:35 PM 26.6 °F 11.4 °F 1.4 °F 34% 29.78 in - West 25.3 mph 41.4 mph N/A Snow Light Snow
6:55 PM 24.8 °F 10.7 °F 1.4 °F 36% 29.79 in - West 19.6 mph 32.2 mph N/A   Clear
7:15 PM 24.8 °F 11.5 °F 5.0 °F 43% 29.79 in - West 17.3 mph 40.3 mph N/A   Clear
7:35 PM 21.2 °F 4.9 °F 6.8 °F 54% 29.77 in - West 23.0 mph 31.1 mph N/A   Clear
7:55 PM 21.2 °F 4.9 °F 6.8 °F 54% 29.77 in - West 23.0 mph 33.4 mph N/A   Clear
8:15 PM 19.4 °F 4.5 °F 6.8 °F 58% 29.77 in - West 17.3 mph 34.5 mph N/A   Clear
8:35 PM 19.4 °F 3.2 °F 6.8 °F 58% 29.78 in - West 20.7 mph 32.2 mph N/A   Clear
8:55 PM 17.6 °F 0.5 °F 6.8 °F 63% 29.78 in - West 21.9 mph 29.9 mph N/A   Clear
9:15 PM 17.6 °F -1.9 °F 6.8 °F 63% 29.79 in - WNW 29.9 mph 39.1 mph N/A   Clear
9:35 PM 17.6 °F -0.3 °F 6.8 °F 63% 29.78 in - West 24.2 mph 35.7 mph N/A   Scattered Clouds
9:55 PM 17.6 °F -1.0 °F 5.0 °F 58% 29.77 in - West 26.5 mph 39.1 mph N/A Snow Light Snow
10:15 PM 15.8 °F -4.1 °F 5.0 °F 62% 29.77 in - West 28.8 mph 36.8 mph N/A   Clear
10:35 PM 15.8 °F -1.9 °F 5.0 °F 62% 29.78 in - West 21.9 mph 40.3 mph N/A   Scattered Clouds
10:55 PM 15.8 °F -2.3 °F 3.2 °F 58% 29.78 in - West 23.0 mph 39.1 mph N/A   Mostly Cloudy
11:15 PM 14.0 °F -6.5 °F 1.4 °F 57% 29.77 in - West 28.8 mph 34.5 mph N/A   Scattered Clouds
11:35 PM 14.0 °F -3.9 °F 3.2 °F 62% 29.79 in - WNW 20.7 mph 33.4 mph N/A   Scattered Clouds
11:55 PM 12.2 °F -8.6 °F 3.2 °F 67% 29.79 in - West 27.6 mph 35.7 mph N/A   Mostly Cloudy